Weather reports worldwide

Advertisment
Bozeman, mt, United States of America (2072079): temperature & dewpoint: 13.11.2019 10:00:00 - 19.11.2019 10:00:00 (MST)Bozeman, mt, United States of America (2072079): wind speed: 13.11.2019 10:00:00 - 19.11.2019 10:00:00 (MST)Bozeman, mt, United States of America (2072079): wind direction: 13.11.2019 10:00:00 - 19.11.2019 10:00:00 (MST)Bozeman, mt, United States of America (2072079): reduced air pressure: 13.11.2019 10:00:00 - 19.11.2019 10:00:00 (MST)Bozeman, mt, United States of America (2072079): visibility: 13.11.2019 10:00:00 - 19.11.2019 10:00:00 (MST)Bozeman, mt, United States of America (2072079): precipitation: 13.11.2019 10:00:00 - 19.11.2019 10:00:00 (MST)
Date & Time tt [°C] td [°C] ff [km/h] ff [kn] dd ppp [hPa] vv [km] rr [mm]
19.11.2019 10:00:00 3,3 0,6 0 0 N 1003,6 16 -
19.11.2019 09:00:00 1,7 -0,6 0 0 N 1004,1 16 -
19.11.2019 08:00:00 0,6 -0,6 0 0 N 1005,2 16 -
19.11.2019 07:00:00 0,0 -1,7 0 0 N 1005,2 16 -
19.11.2019 06:00:00 0,6 -1,7 8 4 SW 1006,1 16 -
19.11.2019 05:00:00 1,1 -1,1 5 3 S 1005,9 16 -
19.11.2019 04:00:00 0,6 -2,2 0 0 N 1006,3 16 -
19.11.2019 03:00:00 0,6 -2,2 15 8 NNW 1007,0 16 -
19.11.2019 02:00:00 1,1 -1,7 9 5 S 1007,1 16 -
19.11.2019 01:00:00 1,1 -1,1 9 5 ENE 1008,5 16 -
19.11.2019 00:00:00 3,3 -0,6 9 5 SSE 1008,9 16 -
18.11.2019 23:00:00 2,2 0,0 13 7 SE 1010,1 16 -
18.11.2019 22:00:00 3,3 0,6 8 4 WNW 1011,0 16 -
18.11.2019 21:00:00 4,4 1,1 5 3 S 1011,8 16 -
18.11.2019 20:00:00 2,2 0,6 9 5 SE 1013,0 16 -
18.11.2019 19:00:00 5,0 1,7 0 0 N 1013,2 16 -
18.11.2019 18:00:00 3,9 1,7 5 3 ENE 1014,0 16 -
18.11.2019 17:00:00 6,1 1,7 0 0 N 1013,8 16 -
18.11.2019 16:00:00 8,3 1,7 5 3 SW 1013,8 16 -
18.11.2019 15:00:00 9,4 1,7 5 3 SW 1014,1 16 -
18.11.2019 14:00:00 10,0 2,2 0 0 N 1014,6 16 -
18.11.2019 13:00:00 9,4 1,1 0 0 N 1014,9 16 -
18.11.2019 12:00:00 9,4 2,2 8 4 N 1016,0 16 -
18.11.2019 11:00:00 8,9 1,7 5 3 N 1017,4 16 -
18.11.2019 10:00:00 6,1 1,7 8 4 WNW 1018,4 16 -
18.11.2019 09:00:00 3,3 0,0 11 6 SE 1019,4 16 -
18.11.2019 08:00:00 3,3 0,0 13 7 SSW 1020,0 16 -
18.11.2019 07:00:00 3,3 -0,6 9 5 ESE 1020,0 16 -
18.11.2019 06:00:00 2,8 -0,6 13 7 ESE 1020,0 16 -
18.11.2019 05:00:00 3,3 0,0 9 5 E 1019,6 16 -
18.11.2019 04:00:00 6,7 0,0 5 3 N 1019,2 16 -
18.11.2019 03:00:00 6,7 1,1 0 0 N 1019,4 16 -
18.11.2019 02:00:00 6,7 1,1 13 7 WSW 1018,2 16 -
18.11.2019 01:00:00 9,4 1,7 9 5 SW 1017,7 16 -
18.11.2019 00:00:00 6,7 2,8 11 6 SSE 1018,1 16 -
17.11.2019 23:00:00 9,4 2,8 5 3 WSW 1017,8 16 -
17.11.2019 22:00:00 7,8 4,4 0 0 N 1017,9 16 -
17.11.2019 21:00:00 8,3 4,4 0 0 N 1017,7 16 -
17.11.2019 20:00:00 7,2 4,4 0 0 N 1017,2 16 0,0
17.11.2019 19:00:00 7,8 4,4 13 7 NNE 1017,2 16 0,0
17.11.2019 18:00:00 7,8 4,4 0 0 N 1017,1 16 -
17.11.2019 17:00:00 7,8 4,4 0 0 N 1017,2 16 0,3
17.11.2019 16:00:00 8,3 2,8 5 3 NE 1017,2 16 0,0
17.11.2019 15:00:00 7,8 2,2 0 0 N 1017,3 16 -
17.11.2019 14:00:00 7,2 0,6 8 4 ESE 1018,1 16 -
17.11.2019 13:00:00 6,7 -0,6 5 3 - 1019,0 16 -
17.11.2019 12:00:00 5,6 -0,6 5 3 ESE 1020,6 16 -
17.11.2019 11:00:00 4,4 0,0 5 3 NE 1021,6 16 -
17.11.2019 10:00:00 3,9 -1,1 0 0 N 1022,0 16 -
17.11.2019 09:00:00 2,2 0,0 5 3 S 1022,8 16 -
17.11.2019 08:00:00 1,7 -0,6 5 3 ESE 1022,8 16 -
17.11.2019 07:00:00 1,7 -1,1 0 0 N 1023,1 16 -
17.11.2019 06:00:00 1,7 -1,1 0 0 N 1022,9 16 -
17.11.2019 05:00:00 1,1 -1,7 0 0 N 1022,5 16 -
17.11.2019 04:00:00 1,1 -2,2 0 0 N 1022,1 16 -
17.11.2019 03:00:00 0,6 -2,8 0 0 N 1022,5 16 -
17.11.2019 02:00:00 0,6 -2,8 0 0 N 1023,0 16 -
17.11.2019 01:00:00 0,6 -3,3 8 4 ESE 1023,8 16 -
17.11.2019 00:00:00 -1,1 -3,9 9 5 ESE 1024,0 16 -
16.11.2019 23:00:00 0,6 -3,3 13 7 SSE 1024,4 16 -
16.11.2019 22:00:00 1,1 -3,9 11 6 SSE 1025,4 16 -
16.11.2019 21:00:00 0,6 -3,9 15 8 S 1025,8 16 -
16.11.2019 20:00:00 2,8 -4,4 11 6 WSW 1025,7 16 -
16.11.2019 19:00:00 1,1 -3,9 11 6 S 1026,7 16 -
16.11.2019 18:00:00 3,9 -3,9 8 4 W 1025,2 16 -
16.11.2019 17:00:00 6,1 -3,9 0 0 N 1024,1 16 -
16.11.2019 16:00:00 8,3 -3,3 8 4 SSE 1023,4 16 -
16.11.2019 15:00:00 9,4 -3,9 8 4 NNW 1023,3 16 -
16.11.2019 14:00:00 8,3 -3,3 9 5 WSW 1023,9 16 -
16.11.2019 13:00:00 7,8 -3,3 13 7 NNW 1023,9 16 -
16.11.2019 12:00:00 9,4 -2,2 11 6 WNW 1024,0 16 -
16.11.2019 11:00:00 7,2 -2,8 15 8 W 1024,4 16 -
16.11.2019 10:00:00 5,0 -1,7 11 6 WSW 1024,5 16 -
16.11.2019 09:00:00 4,4 -1,7 11 6 WSW 1024,3 16 -
16.11.2019 08:00:00 4,4 -1,7 13 7 W 1023,8 16 -
16.11.2019 07:00:00 4,4 -1,1 13 7 W 1023,1 16 -
16.11.2019 06:00:00 4,4 -1,1 11 6 W 1021,9 16 -
16.11.2019 05:00:00 4,4 -0,6 16 9 W 1020,5 16 -
16.11.2019 04:00:00 5,6 0,0 13 7 WNW 1019,1 16 -
16.11.2019 03:00:00 5,0 0,0 11 6 NNW 1017,9 16 -
16.11.2019 02:00:00 7,2 -0,6 9 5 W 1016,7 16 -
16.11.2019 01:00:00 7,8 -0,6 15 8 WNW 1016,2 16 -
16.11.2019 00:00:00 6,7 0,0 9 5 NW 1016,7 16 -
15.11.2019 23:00:00 7,2 -0,6 0 0 N 1017,2 16 -
15.11.2019 22:00:00 6,7 0,0 9 5 NNE 1017,5 16 -
15.11.2019 21:00:00 7,2 0,0 8 4 ENE 1017,5 16 -
15.11.2019 20:00:00 5,0 1,1 9 5 E 1018,6 16 -
15.11.2019 19:00:00 5,6 1,1 11 6 SSW 1018,1 16 -
15.11.2019 18:00:00 5,6 0,6 0 0 N 1017,7 16 -
15.11.2019 17:00:00 6,1 -0,6 0 0 N 1016,8 16 -
15.11.2019 16:00:00 8,3 -0,6 0 0 N 1016,5 16 -
15.11.2019 15:00:00 11,1 -1,1 0 0 N 1015,6 16 -
15.11.2019 14:00:00 8,3 -0,6 5 3 NNW 1017,0 16 -
15.11.2019 13:00:00 7,8 -1,1 5 3 - 1017,9 16 -
15.11.2019 12:00:00 5,0 -1,7 5 3 - 1019,9 16 -
15.11.2019 11:00:00 2,2 -1,1 5 3 NW 1021,8 16 -
15.11.2019 10:00:00 1,7 -2,2 0 0 N 1021,4 16 -
15.11.2019 09:00:00 -0,6 -3,3 0 0 N 1021,9 16 -
15.11.2019 08:00:00 -3,3 -5,0 8 4 NNE 1022,3 16 -
15.11.2019 07:00:00 -2,8 -5,0 8 4 E 1022,0 16 -
15.11.2019 06:00:00 -5,0 -6,7 8 4 SSE 1022,3 16 -
15.11.2019 05:00:00 -3,9 -5,6 8 4 SSW 1021,2 16 -
15.11.2019 04:00:00 -3,9 -6,1 0 0 N 1020,6 16 -
15.11.2019 03:00:00 -2,8 -5,0 9 5 S 1020,8 16 -
15.11.2019 02:00:00 -3,3 -5,0 8 4 SE 1021,2 16 -
15.11.2019 01:00:00 -2,2 -5,0 0 0 N 1021,4 16 -
15.11.2019 00:00:00 -2,8 -5,0 8 4 SSW 1021,9 16 -
14.11.2019 23:00:00 -4,4 -6,1 9 5 ESE 1022,8 16 -
14.11.2019 22:00:00 -3,9 -5,6 5 3 SSE 1023,3 16 -
14.11.2019 21:00:00 -3,3 -5,6 8 4 SSE 1023,3 16 -
14.11.2019 20:00:00 -0,6 -3,3 9 5 S 1023,7 16 -
14.11.2019 19:00:00 0,6 -2,8 8 4 S 1023,2 16 -
14.11.2019 18:00:00 1,7 -2,8 8 4 ENE 1023,2 16 -
14.11.2019 17:00:00 5,6 -2,8 0 0 N 1021,7 16 -
14.11.2019 16:00:00 8,9 -2,2 0 0 N 1021,4 16 -
14.11.2019 15:00:00 8,9 -2,2 5 3 ENE 1022,1 16 -
14.11.2019 14:00:00 8,3 -3,3 0 0 N 1022,7 16 -
14.11.2019 13:00:00 6,1 -2,2 5 3 NNW 1023,5 16 -
14.11.2019 12:00:00 5,0 -1,7 5 3 NNW 1024,8 16 -
14.11.2019 11:00:00 2,2 -2,2 0 0 N 1026,0 16 -
14.11.2019 10:00:00 -1,1 -3,9 0 0 N 1027,0 16 -
14.11.2019 09:00:00 -2,8 -5,0 0 0 N 1027,2 16 -
14.11.2019 08:00:00 -6,1 -7,8 0 0 N 1027,1 16 -
14.11.2019 07:00:00 -5,0 -7,2 0 0 N 1026,1 16 -
14.11.2019 06:00:00 -6,1 -7,8 8 4 SE 1025,7 16 -
14.11.2019 05:00:00 -5,0 -7,2 0 0 N 1025,7 16 -
14.11.2019 04:00:00 -4,4 -6,1 0 0 N 1024,6 16 -
14.11.2019 03:00:00 -6,7 -8,3 9 5 ESE 1025,1 16 -
14.11.2019 02:00:00 -5,0 -6,7 8 4 SE 1024,8 16 -
14.11.2019 01:00:00 -3,9 -6,1 5 3 ESE 1024,6 16 -
14.11.2019 00:00:00 -4,4 -6,1 9 5 ESE 1025,3 16 -
13.11.2019 23:00:00 -2,8 -5,0 5 3 SW 1024,4 16 -
13.11.2019 22:00:00 -3,9 -5,6 9 5 SSE 1025,4 16 -
13.11.2019 21:00:00 -2,2 -4,4 11 6 SE 1024,9 16 -
13.11.2019 20:00:00 0,0 -3,3 0 0 N 1024,4 16 -
13.11.2019 19:00:00 1,1 -3,3 8 4 W 1023,8 16 -
13.11.2019 18:00:00 4,4 -3,9 0 0 N 1022,7 16 -
13.11.2019 17:00:00 5,0 -2,8 0 0 N 1022,1 16 -
13.11.2019 16:00:00 8,9 -1,7 9 5 W 1020,6 16 -
13.11.2019 15:00:00 9,4 -1,1 11 6 WNW 1020,1 16 -
13.11.2019 14:00:00 8,9 -0,6 0 0 N 1020,2 16 -
13.11.2019 13:00:00 8,3 1,1 5 3 NNE 1020,5 16 -
13.11.2019 12:00:00 5,0 1,7 9 5 N 1021,5 16 -
13.11.2019 11:00:00 6,7 0,0 5 3 NE 1021,7 16 -
13.11.2019 10:00:00 2,8 0,0 9 5 SSE 1022,1 16 -

tt = temperature
td = dewpoint
ff = wind speed
dd = wind direction
ppp = reduced air pressure
vv = visibility
rr = precipitation

Next stations